Regional Weather Roundup
Issued by NWS Burlington, VT

Home | Current Version | Previous Version | Text Only | Print | Product List | Glossary On
Versions: 1 2 3 4 5 6 7 8 9 10 11 12 13 14 15 16 17 18 19 20 21 22 23 24 25 26 27 28 29 30 31 32 33 34 35 36 37 38 39 40 41 42 43 44 45 46 47 48 49 50
000
ASUS41 KBTV 290710
RWRBTV
VERMONT REGIONAL WEATHER ROUNDUP
NATIONAL WEATHER SERVICE BURLINGTON VT
300 AM EDT WED JUN 29 2016

NOTE: "FAIR" INDICATES FEW OR NO CLOUDS BELOW 12,000 FEET WITH NO
SIGNIFICANT WEATHER AND/OR OBSTRUCTIONS TO VISIBILITY.

* THESE REPORTS ARE NOT UNDER NWS QUALITY CONTROL AND/OR DO NOT
  REPORT WEATHER SUCH AS PRECIPITATION AND FOG.

VTZ001>019-290800-
_____VERMONT_____


CITY           SKY/WX    TMP DP  RH WIND       PRES   REMARKS
BURLINGTON     CLOUDY    68  64  87 S3        29.85R
MONTPELIER     FOG       63  63 100 CALM      29.91F VSB 1/2
MORRISVILLE    LGT RAIN  64  63  96 CALM      29.88F
ST. JOHNSBURY*   N/A     63  61  93 MISG      29.87S
LYNDONVILLE*   RAIN      61  60  96 CALM      29.92R
MIDDLEBURY*    LGT RAIN  65  65 100 SE3       29.86F
RUTLAND*       LGT RAIN  64  63  94 CALM      29.88S
SPRINGFIELD    LGT RAIN  64  62  93 SE5       29.87F
HIGHGATE*      CLOUDY    64  64  99 CALM      29.84F FOG
NEWPORT*       LGT RAIN  61  60  98 CALM      29.89S
BENNINGTON     CLOUDY    64  63  96 CALM      29.89S FOG

_____LAKE CHAMPLAIN_____


CITY           SKY/WX    TMP DP  RH WIND       PRES   REMARKS

$$

NYZ007-026>031-035-052-083-087-290800-
_____NORTHERN NEW YORK_____


CITY           SKY/WX    TMP DP  RH WIND       PRES   REMARKS
PLATTSBURGH    CLOUDY    64  63  96 CALM      29.85S FOG
SARANAC LAKE     N/A    N/A N/A N/A MISG      29.89S
MASSENA        MOCLDY    60  59  96 S3        29.87R
OGDENSBURG*    PTCLDY    63  61  94 CALM      29.87S
WATERTOWN      CLOUDY    57  56  96 S3        29.88S
FT DRUM        MOCLDY    61  59  94 W3        29.88S
ALBANY         CLOUDY    65  62  90 CALM      29.88S
GLENS FALLS    CLOUDY    66  64  93 CALM      29.86F

$$
NHZ002-005-011-290800-
_____NEW HAMPSHIRE_____


CITY           SKY/WX    TMP DP  RH WIND       PRES   REMARKS
LEBANON        MOCLDY    66  63  90 SW3       29.87R
KEENE          CLOUDY    66  64  94 CALM      29.87F
MT WASHINGTON  TSTM      48  48 100 W6          N/A  VSB 1/8
PLYMOUTH       RAIN      63  62  94 CALM      29.88S
WHITEFIELD     LGT RAIN  63  61  93 CALM      29.91R FOG

$$

_____REGIONAL QUEBEC LOCATIONS_____


CITY           SKY/WX    TMP DP  RH WIND       PRES   REMARKS
MONTREAL       CLOUDY    64  63  94 N6        29.84S
QUEBEC CITY    LGT RAIN  64  61  88 NE10      29.87F
SHERBROOKE     LGT RAIN  63  63 100 W3        29.86S

_____REGIONAL ONTARIO LOCATIONS_____


CITY           SKY/WX    TMP DP  RH WIND       PRES   REMARKS
OTTAWA         CLOUDY    63  57  82 N10       29.87S

______KEY______
VSB  - VISIBILITY IN MILES
WCI  - WIND CHILL INDEX
HX   - HEAT INDEX
$$
NNNN




USA.gov is the U.S. government's official web portal to all federal, state and local government web resources and services.